When you browse on this site, cookies collect data to enhance your experience and personalize the content and advertising you see.
Visit our Privacy Policy to learn more. By continuing to use the site, you agree to this use of cookies and data.
  • In Romania
  • List of Countries
  • For 7 days
  • Water Temperature
  • Satellite Maps
  • Weather Map
  • Weather Widgets
  • user-avatar
    Login

    Hourly Weather Kangly

    Today, 16 January, Wednesday

    Time Temperature Precipitation Wind Pressure Humidity
    00:00 -1°C° 0 mm 3 mps 722 mmHg 82%
    01:00 +1°C° 0 mm 2 mps 722 mmHg 79%
    02:00 +1°C° 0 mm 2 mps 721 mmHg 76%
    03:00 0°C° 0 mm 0 mps 721 mmHg 80%
    04:00 +1°C° 0 mm 0 mps 721 mmHg 76%
    05:00 +3°C° 0 mm 1 mps 721 mmHg 72%
    06:00 +4°C° 0 mm 1 mps 721 mmHg 68%
    07:00 +4°C° 0 mm 1 mps 721 mmHg 65%
    08:00 +5°C° 0 mm 1 mps 721 mmHg 61%
    09:00 +6°C° 0 mm 1 mps 721 mmHg 58%
    10:00 +6°C° 0 mm 2 mps 721 mmHg 56%
    11:00 +7°C° 0 mm 2 mps 722 mmHg 55%
    12:00 +8°C° 0 mm 3 mps 722 mmHg 53%
    13:00 +5°C° 0 mm 5 mps 723 mmHg 62%
    14:00 +2°C° 0 mm 6 mps 724 mmHg 71%
    15:00 0°C° 0 mm 8 mps 724 mmHg 80%
    16:00 -1°C° 0 mm 7 mps 725 mmHg 80%
    17:00 -2°C° 0 mm 6 mps 726 mmHg 81%
    18:00 -1°C° 0 mm 5 mps 727 mmHg 82%
    19:00 -2°C° 0.1 mm 5 mps 727 mmHg 82%
    20:00 -2°C° 0.1 mm 4 mps 728 mmHg 82%
    21:00 -2°C° 0.1 mm 4 mps 728 mmHg 82%
    22:00 -2°C° 0 mm 4 mps 729 mmHg 80%
    23:00 -2°C° 0 mm 3 mps 729 mmHg 78%

    Tomorrow, 17 January, Thursday

    Time Temperature Precipitation Wind Pressure Humidity
    00:00 -2°C° 0 mm 3 mps 730 mmHg 76%
    01:00 -2°C° 0 mm 2 mps 730 mmHg 77%
    02:00 -2°C° 0 mm 2 mps 730 mmHg 77%
    03:00 -2°C° 0 mm 2 mps 731 mmHg 77%
    04:00 0°C° 0.1 mm 1 mps 731 mmHg 78%
    05:00 0°C° 0.1 mm 1 mps 731 mmHg 78%
    06:00 0°C° 0.1 mm 1 mps 732 mmHg 78%
    07:00 0°C° 0 mm 1 mps 732 mmHg 77%
    08:00 0°C° 0 mm 1 mps 733 mmHg 76%
    09:00 0°C° 0 mm 1 mps 734 mmHg 75%
    10:00 +1°C° 0 mm 1 mps 734 mmHg 71%
    11:00 +2°C° 0 mm 1 mps 734 mmHg 67%
    12:00 +1°C° 0 mm 0 mps 734 mmHg 63%
    13:00 +2°C° 0 mm 1 mps 734 mmHg 64%
    14:00 +2°C° 0 mm 1 mps 735 mmHg 64%
    15:00 +2°C° 0 mm 2 mps 735 mmHg 64%
    16:00 +1°C° 0 mm 2 mps 735 mmHg 70%
    17:00 -1°C° 0 mm 2 mps 736 mmHg 76%
    18:00 -2°C° 0 mm 2 mps 736 mmHg 82%
    19:00 0°C° 0 mm 1 mps 737 mmHg 82%
    20:00 0°C° 0 mm 1 mps 737 mmHg 83%
    21:00 0°C° 0 mm 1 mps 737 mmHg 84%
    22:00 0°C° 0 mm 1 mps 738 mmHg 81%
    23:00 0°C° 0 mm 1 mps 738 mmHg 78%

    Day after tomorrow, 18 January, Friday

    Time Temperature Precipitation Wind Pressure Humidity
    00:00 -1°C° 0 mm 0 mps 738 mmHg 76%
    01:00 -1°C° 0 mm 0 mps 738 mmHg 74%
    02:00 -1°C° 0 mm 0 mps 739 mmHg 72%
    03:00 0°C° 0 mm 1 mps 739 mmHg 70%
    04:00 0°C° 0 mm 1 mps 739 mmHg 68%
    05:00 0°C° 0 mm 1 mps 739 mmHg 66%
    06:00 0°C° 0 mm 1 mps 739 mmHg 64%
    07:00 0°C° 0 mm 0 mps 739 mmHg 60%
    08:00 0°C° 0 mm 0 mps 739 mmHg 57%
    09:00 +1°C° 0 mm 0 mps 739 mmHg 54%
    10:00 +2°C° 0 mm 0 mps 739 mmHg 50%
    11:00 +3°C° 0 mm 0 mps 739 mmHg 46%
    12:00 +4°C° 0 mm 0 mps 738 mmHg 41%
    13:00 +5°C° 0 mm 1 mps 738 mmHg 44%
    14:00 +6°C° 0 mm 1 mps 738 mmHg 46%
    15:00 +6°C° 0 mm 1 mps 737 mmHg 49%
    16:00 +4°C° 0 mm 1 mps 738 mmHg 55%
    17:00 +3°C° 0 mm 1 mps 738 mmHg 61%
    18:00 +1°C° 0 mm 2 mps 738 mmHg 67%
    19:00 +1°C° 0 mm 1 mps 738 mmHg 66%
    20:00 +1°C° 0 mm 1 mps 738 mmHg 65%
    21:00 +1°C° 0 mm 1 mps 738 mmHg 64%
    22:00 +1°C° 0 mm 1 mps 738 mmHg 62%
    23:00 0°C° 0 mm 0 mps 738 mmHg 60%

    19 January, Saturday

    Time Temperature Precipitation Wind Pressure Humidity
    00:00 0°C° 0 mm 0 mps 738 mmHg 57%
    01:00 0°C° 0 mm 0 mps 738 mmHg 55%
    02:00 0°C° 0 mm 0 mps 737 mmHg 52%
    03:00 +1°C° 0 mm 1 mps 737 mmHg 49%
    04:00 +1°C° 0 mm 1 mps 737 mmHg 46%
    05:00 +2°C° 0 mm 1 mps 737 mmHg 43%
    06:00 +2°C° 0 mm 1 mps 737 mmHg 40%
    07:00 +2°C° 0 mm 1 mps 737 mmHg 37%
    08:00 +3°C° 0 mm 1 mps 738 mmHg 35%
    09:00 +3°C° 0 mm 1 mps 738 mmHg 32%
    10:00 +5°C° 0 mm 1 mps 738 mmHg 29%
    11:00 +6°C° 0 mm 1 mps 738 mmHg 27%
    12:00 +7°C° 0 mm 1 mps 737 mmHg 24%
    13:00 +6°C° 0 mm 0 mps 737 mmHg 28%
    14:00 +6°C° 0 mm 0 mps 737 mmHg 32%
    15:00 +6°C° 0 mm 0 mps 737 mmHg 36%
    16:00 +5°C° 0 mm 0 mps 737 mmHg 38%
    17:00 +4°C° 0 mm 0 mps 737 mmHg 40%
    18:00 +3°C° 0 mm 0 mps 737 mmHg 42%
    19:00 +3°C° 0 mm 0 mps 738 mmHg 42%
    20:00 +2°C° 0 mm 0 mps 738 mmHg 43%
    21:00 +2°C° 0 mm 0 mps 738 mmHg 44%
    22:00 +2°C° 0 mm 0 mps 738 mmHg 44%
    23:00 +2°C° 0 mm 0 mps 738 mmHg 45%

    20 January, Sunday

    Time Temperature Precipitation Wind Pressure Humidity
    00:00 +2°C° 0 mm 0 mps 738 mmHg 45%
    01:00 +2°C° 0 mm 0 mps 738 mmHg 46%
    02:00 +2°C° 0 mm 0 mps 738 mmHg 46%
    03:00 +2°C° 0 mm 0 mps 738 mmHg 47%
    04:00 +2°C° 0 mm 0 mps 738 mmHg 48%
    05:00 +2°C° 0 mm 0 mps 739 mmHg 50%
    06:00 +2°C° 0 mm 0 mps 739 mmHg 51%
    07:00 +2°C° 0 mm 0 mps 739 mmHg 54%
    08:00 +3°C° 0 mm 1 mps 739 mmHg 57%
    09:00 +3°C° 0 mm 1 mps 739 mmHg 59%
    10:00 +4°C° 0 mm 1 mps 739 mmHg 60%
    11:00 +4°C° 0 mm 2 mps 739 mmHg 60%
    12:00 +4°C° 0 mm 2 mps 738 mmHg 61%
    13:00 +4°C° 0 mm 2 mps 738 mmHg 62%
    14:00 +4°C° 0 mm 2 mps 738 mmHg 63%
    15:00 +4°C° 0 mm 2 mps 738 mmHg 64%
    16:00 +3°C° 0 mm 2 mps 738 mmHg 70%
    17:00 +2°C° 0 mm 2 mps 738 mmHg 76%
    18:00 +1°C° 0 mm 2 mps 738 mmHg 81%
    19:00 +1°C° 0 mm 2 mps 738 mmHg 82%
    20:00 +1°C° 0 mm 2 mps 738 mmHg 83%
    21:00 -1°C° 0 mm 2 mps 738 mmHg 84%
    22:00 -1°C° 0 mm 2 mps 738 mmHg 83%
    23:00 -1°C° 0 mm 2 mps 738 mmHg 82%

    21 January, Monday

    Time Temperature Precipitation Wind Pressure Humidity
    00:00 -1°C° 0 mm 2 mps 738 mmHg 82%
    01:00 -1°C° 0 mm 2 mps 737 mmHg 81%
    02:00 -1°C° 0 mm 2 mps 737 mmHg 80%
    03:00 -1°C° 0 mm 2 mps 737 mmHg 79%
    04:00 -1°C° 0 mm 2 mps 737 mmHg 78%
    05:00 -1°C° 0 mm 2 mps 736 mmHg 76%
    06:00 -1°C° 0 mm 2 mps 736 mmHg 75%
    07:00 -1°C° 0 mm 2 mps 736 mmHg 71%
    08:00 +2°C° 0 mm 1 mps 736 mmHg 68%
    09:00 +2°C° 0 mm 1 mps 735 mmHg 65%
    10:00 +3°C° 0 mm 2 mps 735 mmHg 58%
    11:00 +4°C° 0 mm 2 mps 734 mmHg 51%
    12:00 +6°C° 0 mm 2 mps 733 mmHg 45%
    13:00 +6°C° 0 mm 2 mps 733 mmHg 47%
    14:00 +6°C° 0 mm 2 mps 733 mmHg 49%
    15:00 +7°C° 0 mm 2 mps 732 mmHg 50%
    16:00 +5°C° 0 mm 2 mps 732 mmHg 54%
    17:00 +4°C° 0 mm 2 mps 732 mmHg 58%
    18:00 +4°C° 0 mm 1 mps 732 mmHg 62%
    19:00 +4°C° 0 mm 1 mps 732 mmHg 60%
    20:00 +4°C° 0 mm 1 mps 732 mmHg 59%
    21:00 +4°C° 0 mm 1 mps 732 mmHg 57%
    22:00 +3°C° 0 mm 2 mps 732 mmHg 63%
    23:00 +3°C° 0 mm 2 mps 733 mmHg 68%
    Show more